USA 40 R/B DEB, 23362

Orbit data source: Space-Track

USA 40 R/B DEB, 23362 is space debris originally from a launch on Tue, 08 Aug 1989 UTC launched from the Air Force Eastern Test Range (AFETR). Debris objects in space refer to the collection of defunct objects orbiting the Earth. Examples of debris include non-operational satellites, rocket bodies, and fragments generated from explosions, collisions, or faulty payload assembly.

Loading next visibility...
Identifier
23362, 1989-061AJ
Orbit
Active
Country
Flag of USUS
Related business
Manufacturer
Unknown
Mission
Spacecraft
Bus & Motor
Unknown
Mass
Unknown
Launch date (UTC)
1989-08-08 (37 years ago)
Launch vehicle
Unknown
Launch site
Air Force Eastern Test Range (AFETR)
Object type
Payload
Rocket body
Debris
Shape & HBR
Unknown shape, 0.1 m
Radar Cross Section
Small (<0.1 m²)

Expand to show TLE details & history
Last TLE update: 1 day ago

TLE from 1 day ago
0 USA 40 R/B DEB
1 23362U 89061AJ  26093.56220269  .00006538  00000-0  62000-2 0  9994
2 23362  56.8565 228.7258 2610143  67.7145 317.8533  9.53863150241001
Epoch: 2026-04-03T13:29Z
TLE epoch observation values (Epoch: 2026-04-03T13:29:34.312Z)
Latitude
-0.00005°
Longitude
-165.56175°
Altitude
1,583.512 km
Speed
7.597 km/s
True Right ascension
15h 14m 54s
True Declination
0° 00' 00"
Sunlit
Object was in full shadow at epoch
Visualization orbit readout
Latitude
Unknown
Longitude
Unknown
Altitude
Unknown
Speed
Unknown
Apparent Right ascension
Unknown
Apparent Declination
Unknown
Sunlit
N/A
Visualization observer readout
Local Sidereal Time
20:50:07
Azimuth
Unknown
Elevation
Unknown
Doppler factor
Unknown
Orbital elements
Apogee altitude
5,464.606 km
Perigee altitude
562.004 km
Semi-major axis
9,391.442 km
Eccentricity
0.26101
Inclination
56.8565°
RAAN
228.7258°
Arg. of periapsis
67.7145°
True anomaly
292.37485°
Mean anomaly
317.8533°
Eccentric anomaly
305.71012°
Mean motion
2.38476 °/min
Orbital period
150.96 mins
BSTAR
0.0062
Loading maneuver chart data...
Computing Atmospheric mass density...
Loading historical data...
Loading historical data...
Loading historical data...
Loading historical data...
Loading historical data...
Loading historical data...
Loading historical data...

Documentation

Showing up to 5 results
|